Mokha-1

operational
NORAD ID: 67274 Int'l Des: NNA 2025-313 Owner: KAIS Country: RU
NOTLE

About Mokha-1

Description loading...

Live Position

Loading 3D Globe...

Upcoming Passes

Altitude History

Altitude vs Time

uPlot chart will show altitude changes over time

Two-Line Element Set

1 67274U 25313AC 26014.13442161 .00004212 00000-0 19729-3 0 9995
2 67274 97.4112 91.3163 0015226 179.3691 180.7566 15.20156067 2522
Epoch: Jan 14, 2026 • Age: 14 hours

Current Status

Altitude 518.1 km
Velocity 7.60 km/s
Sub-Earth Point 30.80°N, 69.58°E
Launch Date Dec 28, 2025
Age 17 days
Type other

Technical Details

Classification Payload
Mass 5.00 kg
Dry Mass 5.00 kg
Total Mass 5.00 kg
Length 0.30 m
Diameter 0.10 m
Span 0.30 m
Shape Box
Manufacturer KAIS
Bus Type Cubesat 3U
Phase Status In Orbit
Owner/State KAIS/RU

Large Constellations

Loading constellations...